Year,Month,Day,Hour,Minute,Value (Times are PST for temperature in C)
2013,08,01,00,00,14.20
2013,08,01,00,01,14.20
2013,08,01,00,02,14.20
2013,08,01,00,03,14.20
2013,08,01,00,04,14.20
2013,08,01,00,05,14.20
2013,08,01,00,06,14.20
2013,08,01,00,07,14.20
2013,08,01,00,08,14.20
2013,08,01,00,09,14.20
2013,08,01,00,10,14.20
2013,08,01,00,11,14.20
2013,08,01,00,12,14.20
2013,08,01,00,13,14.20
2013,08,01,00,14,14.20
2013,08,01,00,15,14.20
2013,08,01,00,16,14.20
2013,08,01,00,17,14.20
2013,08,01,00,18,14.20
2013,08,01,00,19,14.20
2013,08,01,00,20,14.20
2013,08,01,00,21,14.20
2013,08,01,00,22,14.20
2013,08,01,00,23,14.20
2013,08,01,00,24,14.20
2013,08,01,00,25,14.20
2013,08,01,00,26,14.20
2013,08,01,00,27,14.20
2013,08,01,00,28,14.30
2013,08,01,00,29,14.30
2013,08,01,00,30,14.30
2013,08,01,00,31,14.30
2013,08,01,00,32,14.30
2013,08,01,00,33,14.40
2013,08,01,00,34,14.40
2013,08,01,00,35,14.40
2013,08,01,00,36,14.40
2013,08,01,00,37,14.50
2013,08,01,00,38,14.50
2013,08,01,00,39,14.60
2013,08,01,00,40,14.60
2013,08,01,00,41,14.70
2013,08,01,00,42,14.80
2013,08,01,00,43,14.80
2013,08,01,00,44,14.80
2013,08,01,00,45,14.80
2013,08,01,00,46,14.80
2013,08,01,00,47,14.80
2013,08,01,00,48,14.80
2013,08,01,00,49,14.80
2013,08,01,00,50,14.90
2013,08,01,00,51,14.90
2013,08,01,00,52,14.90
2013,08,01,00,53,14.90
2013,08,01,00,54,14.90
2013,08,01,00,55,15.00
2013,08,01,00,56,15.00
2013,08,01,00,57,15.00
2013,08,01,00,58,15.00
2013,08,01,00,59,15.00
2013,08,01,01,00,15.00
2013,08,01,01,01,15.00
2013,08,01,01,02,15.00
2013,08,01,01,03,15.10
2013,08,01,01,04,15.20
2013,08,01,01,05,15.30
2013,08,01,01,06,15.40
2013,08,01,01,07,15.50
2013,08,01,01,08,15.50
2013,08,01,01,09,15.60
2013,08,01,01,10,15.70
2013,08,01,01,11,15.70
2013,08,01,01,12,15.80
2013,08,01,01,13,15.80
2013,08,01,01,14,15.90
2013,08,01,01,15,15.90
2013,08,01,01,16,15.90
2013,08,01,01,17,16.00
2013,08,01,01,18,16.00
2013,08,01,01,19,16.00
2013,08,01,01,20,16.00
2013,08,01,01,21,16.00
2013,08,01,01,22,16.00
2013,08,01,01,23,16.00
2013,08,01,01,24,16.00
2013,08,01,01,25,16.10
2013,08,01,01,26,16.10
2013,08,01,01,27,16.10
2013,08,01,01,28,16.10
2013,08,01,01,29,16.10
2013,08,01,01,30,16.20
2013,08,01,01,31,16.20
2013,08,01,01,32,16.20
2013,08,01,01,33,16.20
2013,08,01,01,34,16.20
2013,08,01,01,35,16.20
2013,08,01,01,36,16.20
2013,08,01,01,37,16.30
2013,08,01,01,38,16.30
2013,08,01,01,39,16.30
2013,08,01,01,40,16.30
2013,08,01,01,41,16.30
2013,08,01,01,42,16.40
2013,08,01,01,43,16.40
2013,08,01,01,44,16.40
2013,08,01,01,45,16.40
2013,08,01,01,46,16.40
2013,08,01,01,47,16.40
2013,08,01,01,48,16.40
2013,08,01,01,49,16.40
2013,08,01,01,50,16.40
2013,08,01,01,51,16.50
2013,08,01,01,52,16.50
2013,08,01,01,53,16.40
2013,08,01,01,54,16.50
2013,08,01,01,55,16.50
2013,08,01,01,56,16.50
2013,08,01,01,57,16.50
2013,08,01,01,58,16.50
2013,08,01,01,59,16.60
2013,08,01,02,00,16.60
2013,08,01,02,01,16.60
2013,08,01,02,02,16.60
2013,08,01,02,03,16.60
2013,08,01,02,04,16.60
2013,08,01,02,05,16.60
2013,08,01,02,06,16.60
2013,08,01,02,07,16.60
2013,08,01,02,08,16.60
2013,08,01,02,09,16.60
2013,08,01,02,10,16.60
2013,08,01,02,11,16.60
2013,08,01,02,12,16.60
2013,08,01,02,13,16.50
2013,08,01,02,14,16.50
2013,08,01,02,15,16.50
2013,08,01,02,16,16.40
2013,08,01,02,17,16.40
2013,08,01,02,18,16.40
2013,08,01,02,19,16.40
2013,08,01,02,20,16.30
2013,08,01,02,21,16.30
2013,08,01,02,22,16.20
2013,08,01,02,23,16.10
2013,08,01,02,24,16.00
2013,08,01,02,25,16.00
2013,08,01,02,26,15.90
2013,08,01,02,27,15.80
2013,08,01,02,28,15.80
2013,08,01,02,29,15.70
2013,08,01,02,30,15.70
2013,08,01,02,31,15.60
2013,08,01,02,32,15.50
2013,08,01,02,33,15.50
2013,08,01,02,34,15.40
2013,08,01,02,35,15.40
2013,08,01,02,36,15.30
2013,08,01,02,37,15.30
2013,08,01,02,38,15.20
2013,08,01,02,39,15.20
2013,08,01,02,40,15.10
2013,08,01,02,41,15.00
2013,08,01,02,42,15.00
2013,08,01,02,43,15.00
2013,08,01,02,44,15.00
2013,08,01,02,45,15.00
2013,08,01,02,46,15.00
2013,08,01,02,47,15.00
2013,08,01,02,48,15.00
2013,08,01,02,49,14.90
2013,08,01,02,50,14.90
2013,08,01,02,51,14.80
2013,08,01,02,52,14.80
2013,08,01,02,53,14.80
2013,08,01,02,54,14.70
2013,08,01,02,55,14.70
2013,08,01,02,56,14.70
2013,08,01,02,57,14.60
2013,08,01,02,58,14.60
2013,08,01,02,59,14.60
2013,08,01,03,00,14.50
2013,08,01,03,01,14.50
2013,08,01,03,02,14.40
2013,08,01,03,03,14.40
2013,08,01,03,04,14.40
2013,08,01,03,05,14.40
2013,08,01,03,06,14.30
2013,08,01,03,07,14.30
2013,08,01,03,08,14.30
2013,08,01,03,09,14.20
2013,08,01,03,10,14.20
2013,08,01,03,11,14.20
2013,08,01,03,12,14.20
2013,08,01,03,13,14.10
2013,08,01,03,14,14.10
2013,08,01,03,15,14.10
2013,08,01,03,16,14.00
2013,08,01,03,17,14.00
2013,08,01,03,18,14.00
2013,08,01,03,19,13.90
2013,08,01,03,20,13.90
2013,08,01,03,21,13.90
2013,08,01,03,22,13.90
2013,08,01,03,23,13.90
2013,08,01,03,24,13.80
2013,08,01,03,25,13.80
2013,08,01,03,26,13.80
2013,08,01,03,27,13.80
2013,08,01,03,28,13.80
2013,08,01,03,29,13.70
2013,08,01,03,30,13.70
2013,08,01,03,31,13.70
2013,08,01,03,32,13.70
2013,08,01,03,33,13.70
2013,08,01,03,34,13.70
2013,08,01,03,35,13.70
2013,08,01,03,36,13.70
2013,08,01,03,37,13.60
2013,08,01,03,38,13.60
2013,08,01,03,39,13.60
2013,08,01,03,40,13.60
2013,08,01,03,41,13.60
2013,08,01,03,42,13.60
2013,08,01,03,43,13.60
2013,08,01,03,44,13.50
2013,08,01,03,45,13.50
2013,08,01,03,46,13.50
2013,08,01,03,47,13.40
2013,08,01,03,48,13.40
2013,08,01,03,49,13.40
2013,08,01,03,50,13.40
2013,08,01,03,51,13.40
2013,08,01,03,52,13.40
2013,08,01,03,53,13.40
2013,08,01,03,54,13.30
2013,08,01,03,55,13.30
2013,08,01,03,56,13.30
2013,08,01,03,57,13.30
2013,08,01,03,58,13.30
2013,08,01,03,59,13.30
2013,08,01,04,00,13.30
2013,08,01,04,01,13.30
2013,08,01,04,02,13.20
2013,08,01,04,03,13.20
2013,08,01,04,04,13.20
2013,08,01,04,05,13.20
2013,08,01,04,06,13.20
2013,08,01,04,07,13.20
2013,08,01,04,08,13.20
2013,08,01,04,09,13.20
2013,08,01,04,10,13.20
2013,08,01,04,11,13.20
2013,08,01,04,12,13.20
2013,08,01,04,13,13.10
2013,08,01,04,14,13.10
2013,08,01,04,15,13.10
2013,08,01,04,16,13.10
2013,08,01,04,17,13.10
2013,08,01,04,18,13.10
2013,08,01,04,19,13.10
2013,08,01,04,20,13.10
2013,08,01,04,21,13.10
2013,08,01,04,22,13.10
2013,08,01,04,23,13.00
2013,08,01,04,24,13.00
2013,08,01,04,25,13.00
2013,08,01,04,26,13.00
2013,08,01,04,27,13.00
2013,08,01,04,28,12.90
2013,08,01,04,29,12.90
2013,08,01,04,30,12.90
2013,08,01,04,31,12.90
2013,08,01,04,32,12.90
2013,08,01,04,33,12.90
2013,08,01,04,34,12.90
2013,08,01,04,35,12.90
2013,08,01,04,36,12.90
2013,08,01,04,37,12.80
2013,08,01,04,38,12.80
2013,08,01,04,39,12.80
2013,08,01,04,40,12.80
2013,08,01,04,41,12.80
2013,08,01,04,42,12.80
2013,08,01,04,43,12.80
2013,08,01,04,44,12.80
2013,08,01,04,45,12.80
2013,08,01,04,46,12.80
2013,08,01,04,47,12.80
2013,08,01,04,48,12.80
2013,08,01,04,49,12.80
2013,08,01,04,50,12.70
2013,08,01,04,51,12.70
2013,08,01,04,52,12.70
2013,08,01,04,53,12.70
2013,08,01,04,54,12.70
2013,08,01,04,55,12.70
2013,08,01,04,56,12.70
2013,08,01,04,57,12.70
2013,08,01,04,58,12.70
2013,08,01,04,59,12.70
2013,08,01,05,00,12.70
2013,08,01,05,01,12.70
2013,08,01,05,02,12.70
2013,08,01,05,03,12.70
2013,08,01,05,04,12.70
2013,08,01,05,05,12.70
2013,08,01,05,06,12.70
2013,08,01,05,07,12.70
2013,08,01,05,08,12.70
2013,08,01,05,09,12.70
2013,08,01,05,10,12.70
2013,08,01,05,11,12.70
2013,08,01,05,12,12.70
2013,08,01,05,13,12.70
2013,08,01,05,14,12.70
2013,08,01,05,15,12.70
2013,08,01,05,16,12.70
2013,08,01,05,17,12.70
2013,08,01,05,18,12.70
2013,08,01,05,19,12.70
2013,08,01,05,20,12.70
2013,08,01,05,21,12.70
2013,08,01,05,22,12.60
2013,08,01,05,23,12.60
2013,08,01,05,24,12.60
2013,08,01,05,25,12.60
2013,08,01,05,26,12.60
2013,08,01,05,27,12.60
2013,08,01,05,28,12.60
2013,08,01,05,29,12.60
2013,08,01,05,30,12.60
2013,08,01,05,31,12.60
2013,08,01,05,32,12.60
2013,08,01,05,33,12.60
2013,08,01,05,34,12.60
2013,08,01,05,35,12.60
2013,08,01,05,36,12.60
2013,08,01,05,37,12.60
2013,08,01,05,38,12.60
2013,08,01,05,39,12.60
2013,08,01,05,40,12.60
2013,08,01,05,41,12.60
2013,08,01,05,42,12.60
2013,08,01,05,43,12.60
2013,08,01,05,44,12.60
2013,08,01,05,45,12.60
2013,08,01,05,46,12.60
2013,08,01,05,47,12.60
2013,08,01,05,48,12.60
2013,08,01,05,49,12.60
2013,08,01,05,50,12.60
2013,08,01,05,51,12.60
2013,08,01,05,52,12.60
2013,08,01,05,53,12.60
2013,08,01,05,54,12.60
2013,08,01,05,55,12.60
2013,08,01,05,56,12.60
2013,08,01,05,57,12.60
2013,08,01,05,58,12.60
2013,08,01,05,59,12.60
2013,08,01,06,00,12.60
2013,08,01,06,01,12.60
2013,08,01,06,02,12.60
2013,08,01,06,03,12.60
2013,08,01,06,04,12.60
2013,08,01,06,05,12.60
2013,08,01,06,06,12.60
2013,08,01,06,07,12.60
2013,08,01,06,08,12.70
2013,08,01,06,09,12.70
2013,08,01,06,10,12.70
2013,08,01,06,11,12.70
2013,08,01,06,12,12.80
2013,08,01,06,13,12.80
2013,08,01,06,14,12.80
2013,08,01,06,15,12.80
2013,08,01,06,16,12.90
2013,08,01,06,17,13.00
2013,08,01,06,18,13.00
2013,08,01,06,19,13.10
2013,08,01,06,20,13.10
2013,08,01,06,21,13.10
2013,08,01,06,22,13.10
2013,08,01,06,23,13.10
2013,08,01,06,24,13.10
2013,08,01,06,25,13.20
2013,08,01,06,26,13.20
2013,08,01,06,27,13.20
2013,08,01,06,28,13.30
2013,08,01,06,29,13.40
2013,08,01,06,30,13.40
2013,08,01,06,31,13.50
2013,08,01,06,32,13.50
2013,08,01,06,33,13.50
2013,08,01,06,34,13.60
2013,08,01,06,35,13.60
2013,08,01,06,36,13.50
2013,08,01,06,37,13.50
2013,08,01,06,38,13.40
2013,08,01,06,39,13.40
2013,08,01,06,40,13.30
2013,08,01,06,41,13.20
2013,08,01,06,42,13.20
2013,08,01,06,43,13.20
2013,08,01,06,44,13.10
2013,08,01,06,45,13.10
2013,08,01,06,46,13.10
2013,08,01,06,47,13.00
2013,08,01,06,48,13.00
2013,08,01,06,49,13.00
2013,08,01,06,50,12.90
2013,08,01,06,51,12.90
2013,08,01,06,52,12.90
2013,08,01,06,53,12.90
2013,08,01,06,54,12.90
2013,08,01,06,55,12.90
2013,08,01,06,56,12.80
2013,08,01,06,57,12.80
2013,08,01,06,58,12.80
2013,08,01,06,59,12.80
2013,08,01,07,00,12.80
2013,08,01,07,01,12.80
2013,08,01,07,02,12.80
2013,08,01,07,03,12.80
2013,08,01,07,04,12.70
2013,08,01,07,05,12.70
2013,08,01,07,06,12.70
2013,08,01,07,07,12.70
2013,08,01,07,08,12.70
2013,08,01,07,09,12.70
2013,08,01,07,10,12.70
2013,08,01,07,11,12.70
2013,08,01,07,12,12.70
2013,08,01,07,13,12.70
2013,08,01,07,14,12.70
2013,08,01,07,15,12.80
2013,08,01,07,16,12.80
2013,08,01,07,17,12.80
2013,08,01,07,18,12.80
2013,08,01,07,19,12.80
2013,08,01,07,20,12.80
2013,08,01,07,21,12.80
2013,08,01,07,22,12.80
2013,08,01,07,23,12.80
2013,08,01,07,24,12.80
2013,08,01,07,25,12.80
2013,08,01,07,26,12.80
2013,08,01,07,27,12.80
2013,08,01,07,28,12.80
2013,08,01,07,29,12.80
2013,08,01,07,30,12.80
2013,08,01,07,31,12.90
2013,08,01,07,32,12.90
2013,08,01,07,33,12.90
2013,08,01,07,34,12.90
2013,08,01,07,35,12.90
2013,08,01,07,36,12.90
2013,08,01,07,37,12.90
2013,08,01,07,38,12.90
2013,08,01,07,39,12.90
2013,08,01,07,40,13.00
2013,08,01,07,41,13.00
2013,08,01,07,42,13.00
2013,08,01,07,43,13.00
2013,08,01,07,44,13.10
2013,08,01,07,45,13.10
2013,08,01,07,46,13.10
2013,08,01,07,47,13.10
2013,08,01,07,48,13.10
2013,08,01,07,49,13.20
2013,08,01,07,50,13.20
2013,08,01,07,51,13.20
2013,08,01,07,52,13.20
2013,08,01,07,53,13.30
2013,08,01,07,54,13.30
2013,08,01,07,55,13.30
2013,08,01,07,56,13.40
2013,08,01,07,57,13.40
2013,08,01,07,58,13.40
2013,08,01,07,59,13.40
2013,08,01,08,00,13.50
2013,08,01,08,01,13.50
2013,08,01,08,02,13.50
2013,08,01,08,03,13.60
2013,08,01,08,04,13.60
2013,08,01,08,05,13.60
2013,08,01,08,06,13.60
2013,08,01,08,07,13.70
2013,08,01,08,08,13.70
2013,08,01,08,09,13.70
2013,08,01,08,10,13.80
2013,08,01,08,11,13.80
2013,08,01,08,12,13.80
2013,08,01,08,13,13.80
2013,08,01,08,14,13.90
2013,08,01,08,15,13.90
2013,08,01,08,16,13.90
2013,08,01,08,17,14.00
2013,08,01,08,18,14.00
2013,08,01,08,19,14.10
2013,08,01,08,20,14.10
2013,08,01,08,21,14.20
2013,08,01,08,22,14.20
2013,08,01,08,23,14.30
2013,08,01,08,24,14.30
2013,08,01,08,25,14.40
2013,08,01,08,26,14.40
2013,08,01,08,27,14.50
2013,08,01,08,28,14.60
2013,08,01,08,29,14.60
2013,08,01,08,30,14.70
2013,08,01,08,31,14.70
2013,08,01,08,32,14.80
2013,08,01,08,33,14.90
2013,08,01,08,34,15.00
2013,08,01,08,35,15.00
2013,08,01,08,36,15.00
2013,08,01,08,37,15.00
2013,08,01,08,38,15.00
2013,08,01,08,39,15.10
2013,08,01,08,40,15.20
2013,08,01,08,41,15.30
2013,08,01,08,42,15.40
2013,08,01,08,43,15.50
2013,08,01,08,44,15.60
2013,08,01,08,45,15.60
2013,08,01,08,46,15.70
2013,08,01,08,47,15.80
2013,08,01,08,48,15.90
2013,08,01,08,49,16.00
2013,08,01,08,50,16.00
2013,08,01,08,51,16.10
2013,08,01,08,52,16.10
2013,08,01,08,53,16.20
2013,08,01,08,54,16.30
2013,08,01,08,55,16.30
2013,08,01,08,56,16.40
2013,08,01,08,57,16.50
2013,08,01,08,58,16.50
2013,08,01,08,59,16.60
2013,08,01,09,00,16.70
2013,08,01,09,01,16.70
2013,08,01,09,02,16.80
2013,08,01,09,03,16.80
2013,08,01,09,04,16.90
2013,08,01,09,05,17.00
2013,08,01,09,06,17.00
2013,08,01,09,07,17.10
2013,08,01,09,08,17.20
2013,08,01,09,09,17.20
2013,08,01,09,10,17.30
2013,08,01,09,11,17.40
2013,08,01,09,12,17.40
2013,08,01,09,13,17.40
2013,08,01,09,14,17.50
2013,08,01,09,15,17.60
2013,08,01,09,16,17.60
2013,08,01,09,17,17.70
2013,08,01,09,18,17.80
2013,08,01,09,19,17.80
2013,08,01,09,20,17.80
2013,08,01,09,21,17.90
2013,08,01,09,22,17.90
2013,08,01,09,23,17.90
2013,08,01,09,24,18.00
2013,08,01,09,25,18.10
2013,08,01,09,26,18.10
2013,08,01,09,27,18.10
2013,08,01,09,28,18.10
2013,08,01,09,29,18.10
2013,08,01,09,30,18.00
2013,08,01,09,31,18.00
2013,08,01,09,32,18.00
2013,08,01,09,33,18.00
2013,08,01,09,34,18.00
2013,08,01,09,35,18.00
2013,08,01,09,36,18.10
2013,08,01,09,37,18.10
2013,08,01,09,38,18.10
2013,08,01,09,39,18.20
2013,08,01,09,40,18.20
2013,08,01,09,41,18.20
2013,08,01,09,42,18.30
2013,08,01,09,43,18.30
2013,08,01,09,44,18.40
2013,08,01,09,45,18.40
2013,08,01,09,46,18.50
2013,08,01,09,47,18.50
2013,08,01,09,48,18.60
2013,08,01,09,49,18.50
2013,08,01,09,50,18.50
2013,08,01,09,51,18.50
2013,08,01,09,52,18.50
2013,08,01,09,53,18.40
2013,08,01,09,54,18.40
2013,08,01,09,55,18.40
2013,08,01,09,56,18.40
2013,08,01,09,57,18.40
2013,08,01,09,58,18.50
2013,08,01,09,59,18.50
2013,08,01,10,00,18.50
2013,08,01,10,01,18.60
2013,08,01,10,02,18.60
2013,08,01,10,03,18.60
2013,08,01,10,04,18.60
2013,08,01,10,05,18.60
2013,08,01,10,06,18.60
2013,08,01,10,07,18.60
2013,08,01,10,08,18.50
2013,08,01,10,09,18.50
2013,08,01,10,10,18.50
2013,08,01,10,11,18.40
2013,08,01,10,12,18.40
2013,08,01,10,13,18.40
2013,08,01,10,14,18.30
2013,08,01,10,15,18.30
2013,08,01,10,16,18.30
2013,08,01,10,17,18.30
2013,08,01,10,18,18.40
2013,08,01,10,19,18.40
2013,08,01,10,20,18.40
2013,08,01,10,21,18.50
2013,08,01,10,22,18.50
2013,08,01,10,23,18.60
2013,08,01,10,24,18.60
2013,08,01,10,25,18.60
2013,08,01,10,26,18.60
2013,08,01,10,27,18.70
2013,08,01,10,28,18.70
2013,08,01,10,29,18.70
2013,08,01,10,30,18.70
2013,08,01,10,31,18.70
2013,08,01,10,32,18.70
2013,08,01,10,33,18.70
2013,08,01,10,34,18.80
2013,08,01,10,35,18.80
2013,08,01,10,36,18.80
2013,08,01,10,37,18.80
2013,08,01,10,38,18.90
2013,08,01,10,39,18.90
2013,08,01,10,40,18.90
2013,08,01,10,41,19.00
2013,08,01,10,42,19.00
2013,08,01,10,43,19.10
2013,08,01,10,44,19.10
2013,08,01,10,45,19.20
2013,08,01,10,46,19.30
2013,08,01,10,47,19.30
2013,08,01,10,48,19.30
2013,08,01,10,49,19.30
2013,08,01,10,50,19.30
2013,08,01,10,51,19.40
2013,08,01,10,52,19.40
2013,08,01,10,53,19.40
2013,08,01,10,54,19.40
2013,08,01,10,55,19.40
2013,08,01,10,56,19.40
2013,08,01,10,57,19.40
2013,08,01,10,58,19.40
2013,08,01,10,59,19.50
2013,08,01,11,00,19.50
2013,08,01,11,01,19.50
2013,08,01,11,02,19.50
2013,08,01,11,03,19.50
2013,08,01,11,04,19.60
2013,08,01,11,05,19.60
2013,08,01,11,06,19.70
2013,08,01,11,07,19.70
2013,08,01,11,08,19.70
2013,08,01,11,09,19.70
2013,08,01,11,10,19.70
2013,08,01,11,11,19.80
2013,08,01,11,12,19.80
2013,08,01,11,13,19.80
2013,08,01,11,14,19.80
2013,08,01,11,15,19.80
2013,08,01,11,16,19.80
2013,08,01,11,17,19.70
2013,08,01,11,18,19.70
2013,08,01,11,19,19.80
2013,08,01,11,20,19.80
2013,08,01,11,21,19.80
2013,08,01,11,22,19.80
2013,08,01,11,23,19.80
2013,08,01,11,24,19.70
2013,08,01,11,25,19.60
2013,08,01,11,26,19.60
2013,08,01,11,27,19.60
2013,08,01,11,28,19.60
2013,08,01,11,29,19.60
2013,08,01,11,30,19.60
2013,08,01,11,31,19.60
2013,08,01,11,32,19.70
2013,08,01,11,33,19.80
2013,08,01,11,34,19.80
2013,08,01,11,35,19.80
2013,08,01,11,36,19.90
2013,08,01,11,37,19.90
2013,08,01,11,38,20.00
2013,08,01,11,39,20.00
2013,08,01,11,40,20.10
2013,08,01,11,41,20.10
2013,08,01,11,42,20.20
2013,08,01,11,43,20.20
2013,08,01,11,44,20.20
2013,08,01,11,45,20.20
2013,08,01,11,46,20.30
2013,08,01,11,47,20.20
2013,08,01,11,48,20.20
2013,08,01,11,49,20.20
2013,08,01,11,50,20.20
2013,08,01,11,51,20.20
2013,08,01,11,52,20.20
2013,08,01,11,53,20.20
2013,08,01,11,54,20.10
2013,08,01,11,55,20.10
2013,08,01,11,56,20.10
2013,08,01,11,57,20.10
2013,08,01,11,58,20.10
2013,08,01,11,59,20.10
2013,08,01,12,00,20.10
2013,08,01,12,01,20.10
2013,08,01,12,02,20.20
2013,08,01,12,03,20.20
2013,08,01,12,04,20.30
2013,08,01,12,05,20.30
2013,08,01,12,06,20.40
2013,08,01,12,07,20.40
2013,08,01,12,08,20.50
2013,08,01,12,09,20.50
2013,08,01,12,10,20.60
2013,08,01,12,11,20.60
2013,08,01,12,12,20.60
2013,08,01,12,13,20.60
2013,08,01,12,14,20.60
2013,08,01,12,15,20.60
2013,08,01,12,16,20.60
2013,08,01,12,17,20.50
2013,08,01,12,18,20.40
2013,08,01,12,19,20.30
2013,08,01,12,20,20.20
2013,08,01,12,21,20.20
2013,08,01,12,22,20.20
2013,08,01,12,23,20.10
2013,08,01,12,24,19.90
2013,08,01,12,25,19.70
2013,08,01,12,26,19.60
2013,08,01,12,27,19.40
2013,08,01,12,28,19.20
2013,08,01,12,29,19.10
2013,08,01,12,30,18.90
2013,08,01,12,31,18.80
2013,08,01,12,32,18.70
2013,08,01,12,33,18.70
2013,08,01,12,34,18.70
2013,08,01,12,35,18.70
2013,08,01,12,36,18.80
2013,08,01,12,37,18.90
2013,08,01,12,38,18.90
2013,08,01,12,39,19.00
2013,08,01,12,40,19.10
2013,08,01,12,41,19.10
2013,08,01,12,42,19.20
2013,08,01,12,43,19.20
2013,08,01,12,44,19.30
2013,08,01,12,45,19.30
2013,08,01,12,46,19.40
2013,08,01,12,47,19.40
2013,08,01,12,48,19.40
2013,08,01,12,49,19.40
2013,08,01,12,50,19.40
2013,08,01,12,51,19.50
2013,08,01,12,52,19.50
2013,08,01,12,53,19.60
2013,08,01,12,54,19.60
2013,08,01,12,55,19.70
2013,08,01,12,56,19.80
2013,08,01,12,57,19.90
2013,08,01,12,58,20.00
2013,08,01,12,59,20.10
2013,08,01,13,00,20.10
2013,08,01,13,01,20.10
2013,08,01,13,02,20.20
2013,08,01,13,03,20.20
2013,08,01,13,04,20.30
2013,08,01,13,05,20.30
2013,08,01,13,06,20.40
2013,08,01,13,07,20.50
2013,08,01,13,08,20.60
2013,08,01,13,09,20.70
2013,08,01,13,10,20.80
2013,08,01,13,11,20.90
2013,08,01,13,12,21.00
2013,08,01,13,13,21.10
2013,08,01,13,14,21.10
2013,08,01,13,15,21.20
2013,08,01,13,16,21.10
2013,08,01,13,17,21.10
2013,08,01,13,18,21.00
2013,08,01,13,19,21.00
2013,08,01,13,20,21.00
2013,08,01,13,21,21.00
2013,08,01,13,22,21.10
2013,08,01,13,23,21.10
2013,08,01,13,24,21.20
2013,08,01,13,25,21.20
2013,08,01,13,26,21.30
2013,08,01,13,27,21.40
2013,08,01,13,28,21.40
2013,08,01,13,29,21.40
2013,08,01,13,30,21.50
2013,08,01,13,31,21.50
2013,08,01,13,32,21.60
2013,08,01,13,33,21.60
2013,08,01,13,34,21.50
2013,08,01,13,35,21.40
2013,08,01,13,36,21.40
2013,08,01,13,37,21.30
2013,08,01,13,38,21.30
2013,08,01,13,39,21.30
2013,08,01,13,40,21.30
2013,08,01,13,41,21.30
2013,08,01,13,42,21.30
2013,08,01,13,43,21.30
2013,08,01,13,44,21.30
2013,08,01,13,45,21.30
2013,08,01,13,46,21.40
2013,08,01,13,47,21.40
2013,08,01,13,48,21.40
2013,08,01,13,49,21.30
2013,08,01,13,50,21.30
2013,08,01,13,51,21.30
2013,08,01,13,52,21.30
2013,08,01,13,53,21.40
2013,08,01,13,54,21.40
2013,08,01,13,55,21.30
2013,08,01,13,56,21.30
2013,08,01,13,57,21.30
2013,08,01,13,58,21.30
2013,08,01,13,59,21.30
2013,08,01,14,00,21.30
2013,08,01,14,01,21.30
2013,08,01,14,02,21.30
2013,08,01,14,03,21.40
2013,08,01,14,04,21.40
2013,08,01,14,05,21.40
2013,08,01,14,06,21.50
2013,08,01,14,07,21.60
2013,08,01,14,08,21.70
2013,08,01,14,09,21.70
2013,08,01,14,10,21.80
2013,08,01,14,11,21.80
2013,08,01,14,12,21.80
2013,08,01,14,13,21.80
2013,08,01,14,14,21.90
2013,08,01,14,15,21.90
2013,08,01,14,16,22.00
2013,08,01,14,17,22.10
2013,08,01,14,18,22.10
2013,08,01,14,19,22.10
2013,08,01,14,20,22.10
2013,08,01,14,21,22.00
2013,08,01,14,22,22.00
2013,08,01,14,23,21.90
2013,08,01,14,24,21.80
2013,08,01,14,25,21.70
2013,08,01,14,26,21.70
2013,08,01,14,27,21.70
2013,08,01,14,28,21.80
2013,08,01,14,29,21.80
2013,08,01,14,30,21.90
2013,08,01,14,31,22.00
2013,08,01,14,32,22.10
2013,08,01,14,33,22.20
2013,08,01,14,34,22.30
2013,08,01,14,35,22.30
2013,08,01,14,36,22.40
2013,08,01,14,37,22.40
2013,08,01,14,38,22.40
2013,08,01,14,39,22.30
2013,08,01,14,40,22.20
2013,08,01,14,41,22.20
2013,08,01,14,42,22.20
2013,08,01,14,43,22.20
2013,08,01,14,44,22.20
2013,08,01,14,45,22.10
2013,08,01,14,46,22.10
2013,08,01,14,47,22.10
2013,08,01,14,48,22.10
2013,08,01,14,49,22.10
2013,08,01,14,50,22.10
2013,08,01,14,51,22.10
2013,08,01,14,52,22.10
2013,08,01,14,53,22.10
2013,08,01,14,54,22.00
2013,08,01,14,55,21.90
2013,08,01,14,56,21.80
2013,08,01,14,57,21.70
2013,08,01,14,58,21.60
2013,08,01,14,59,21.40
2013,08,01,15,00,21.30
2013,08,01,15,01,21.10
2013,08,01,15,02,21.00
2013,08,01,15,03,20.90
2013,08,01,15,04,20.70
2013,08,01,15,05,20.60
2013,08,01,15,06,20.50
2013,08,01,15,07,20.50
2013,08,01,15,08,20.40
2013,08,01,15,09,20.40
2013,08,01,15,10,20.40
2013,08,01,15,11,20.50
2013,08,01,15,12,20.50
2013,08,01,15,13,20.50
2013,08,01,15,14,20.60
2013,08,01,15,15,20.60
2013,08,01,15,16,20.60
2013,08,01,15,17,20.60
2013,08,01,15,18,20.70
2013,08,01,15,19,20.70
2013,08,01,15,20,20.80
2013,08,01,15,21,20.90
2013,08,01,15,22,21.00
2013,08,01,15,23,21.10
2013,08,01,15,24,21.10
2013,08,01,15,25,21.10
2013,08,01,15,26,21.10
2013,08,01,15,27,21.10
2013,08,01,15,28,21.00
2013,08,01,15,29,21.00
2013,08,01,15,30,21.00
2013,08,01,15,31,21.00
2013,08,01,15,32,21.00
2013,08,01,15,33,21.10
2013,08,01,15,34,21.10
2013,08,01,15,35,21.10
2013,08,01,15,36,21.10
2013,08,01,15,37,21.10
2013,08,01,15,38,21.10
2013,08,01,15,39,21.10
2013,08,01,15,40,21.20
2013,08,01,15,41,21.20
2013,08,01,15,42,21.20
2013,08,01,15,43,21.10
2013,08,01,15,44,21.00
2013,08,01,15,45,20.90
2013,08,01,15,46,20.90
2013,08,01,15,47,20.80
2013,08,01,15,48,20.70
2013,08,01,15,49,20.60
2013,08,01,15,50,20.60
2013,08,01,15,51,20.50
2013,08,01,15,52,20.50
2013,08,01,15,53,20.40
2013,08,01,15,54,20.40
2013,08,01,15,55,20.30
2013,08,01,15,56,20.30
2013,08,01,15,57,20.30
2013,08,01,15,58,20.30
2013,08,01,15,59,20.30
2013,08,01,16,00,20.30
2013,08,01,16,01,20.20
2013,08,01,16,02,20.20
2013,08,01,16,03,20.10
2013,08,01,16,04,20.00
2013,08,01,16,05,20.00
2013,08,01,16,06,20.00
2013,08,01,16,07,20.10
2013,08,01,16,08,20.20
2013,08,01,16,09,20.20
2013,08,01,16,10,20.30
2013,08,01,16,11,20.30
2013,08,01,16,12,20.40
2013,08,01,16,13,20.40
2013,08,01,16,14,20.30
2013,08,01,16,15,20.30
2013,08,01,16,16,20.30
2013,08,01,16,17,20.30
2013,08,01,16,18,20.30
2013,08,01,16,19,20.40
2013,08,01,16,20,20.40
2013,08,01,16,21,20.50
2013,08,01,16,22,20.50
2013,08,01,16,23,20.50
2013,08,01,16,24,20.60
2013,08,01,16,25,20.60
2013,08,01,16,26,20.70
2013,08,01,16,27,20.70
2013,08,01,16,28,20.70
2013,08,01,16,29,20.80
2013,08,01,16,30,20.80
2013,08,01,16,31,20.90
2013,08,01,16,32,21.00
2013,08,01,16,33,21.10
2013,08,01,16,34,21.10
2013,08,01,16,35,21.10
2013,08,01,16,36,21.10
2013,08,01,16,37,21.10
2013,08,01,16,38,21.10
2013,08,01,16,39,21.20
2013,08,01,16,40,21.20
2013,08,01,16,41,21.20
2013,08,01,16,42,21.30
2013,08,01,16,43,21.40
2013,08,01,16,44,21.50
2013,08,01,16,45,21.60
2013,08,01,16,46,21.70
2013,08,01,16,47,21.80
2013,08,01,16,48,21.80
2013,08,01,16,49,21.90
2013,08,01,16,50,21.90
2013,08,01,16,51,22.00
2013,08,01,16,52,22.00
2013,08,01,16,53,22.00
2013,08,01,16,54,22.10
2013,08,01,16,55,22.10
2013,08,01,16,56,22.20
2013,08,01,16,57,22.30
2013,08,01,16,58,22.30
2013,08,01,16,59,22.40
2013,08,01,17,00,22.30
2013,08,01,17,01,22.30
2013,08,01,17,02,22.30
2013,08,01,17,03,22.30
2013,08,01,17,04,22.40
2013,08,01,17,05,22.40
2013,08,01,17,06,22.40
2013,08,01,17,07,22.40
2013,08,01,17,08,22.50
2013,08,01,17,09,22.50
2013,08,01,17,10,22.60
2013,08,01,17,11,22.70
2013,08,01,17,12,22.70
2013,08,01,17,13,22.80
2013,08,01,17,14,22.70
2013,08,01,17,15,22.70
2013,08,01,17,16,22.60
2013,08,01,17,17,22.60
2013,08,01,17,18,22.60
2013,08,01,17,19,22.60